372  
ASUS44 KMEG 282210  
RWRMEG  
MEMPHIS CWA HOURLY WEATHER ROUNDUP  
NATIONAL WEATHER SERVICE MEMPHIS TN  
400 PM CST SUN FEB 28 2021  
   
..WEST TENNESSEE
 
 
 
CITY SKY/WX TMP DP RH WIND PRES REMARKS
 
MEMPHIS INTL LGT RAIN 70 66 87 S10G20 29.83F  
NWS MEMPHIS N/A 69 N/A N/A MISG N/A  
JACKSON CLOUDY 72 64 76 S16G29 29.82F  
COVINGTON PTSUNNY 72 66 83 SW18G26 29.81R HAZE  
SOMERVILLE PTSUNNY 72 66 83 SW13 29.82F  
LEXINGTON PTSUNNY 72 64 78 S14G20 29.83F  
SELMER MOSUNNY 72 64 78 S8 29.85F  
DYERSBURG LGT RAIN 72 67 84 S9 29.78F  
UNION CITY CLOUDY 64 64 100 CALM 29.78F  
PARIS CLOUDY 70 66 88 S8 29.81F  
HUNTINGDON PTSUNNY 70 66 88 S8 29.81F  
 
   
..EASTERN ARKANSAS
 
 
 
CITY SKY/WX TMP DP RH WIND PRES REMARKS
 
JONESBORO RAIN 63 61 93 SW13 29.83R FOG  
WEST MEMPHIS CLOUDY 71 66 84 S15 29.81F  
BATESVILLE TSTM 61 60 97 VRB6 29.86R  
NEWPORT TSTM 61 61 100 NW6 29.84R FOG  
WALNUT RIDGE TSTM 62 60 93 W3 29.85R  
BLYTHEVILLE TSTM 68 64 87 W31 29.82R VSB 3/4  
SEARCY TSTM 63 61 94 NW12G22 29.84R FOG  
STUTTGART CLOUDY 74 69 85 S21 29.82F  
PINE BLUFF LGT RAIN 74 65 73 SW10 29.83F  
MONTICELLO PTSUNNY 76 67 73 S7 29.84F  
 
   
..NORTH MISSISSIPPI
 
 
 
CITY SKY/WX TMP DP RH WIND PRES REMARKS
 
TUPELO CLOUDY 79 63 57 S14 29.88F  
OXFORD PTSUNNY 73 64 73 VRB7 29.89F  
BATESVILLE CLOUDY 77 64 65 SW16G26 29.86S  
OLIVE BRANCH PTSUNNY 70 68 94 S15 29.84F  
TUNICA CLOUDY 72 66 83 S15 29.86S  
CLARKSDALE N/A 77 68 73 S14G23 29.86R  
CORINTH PTSUNNY 75 64 69 S12 29.86F  
GREENWOOD PTSUNNY 80 65 59 SW10 29.88F  
COLUMBUS PTSUNNY 81 61 51 S12 29.89F  
STARKVILLE CLOUDY 79 61 53 S10G17 29.92F  
GOLDEN TRIANGL CLOUDY 79 63 57 S14 29.91F  
 
   
..SOUTHEAST MISSOURI
 
 
 
CITY SKY/WX TMP DP RH WIND PRES REMARKS
 
KENNETT RAIN 66 66 100 W6 29.75F  
MALDEN CLOUDY 64 63 94 NW5 29.81S  
WEST PLAINS RAIN 58 55 90 NW8 29.89S FOG  
POPLAR BLUFF CLOUDY 63 54 72 NW12G21 29.81R  
CAPE GIRARDEAU LGT RAIN 65 61 87 W20G29 29.82R  
 
   
..NORTHWEST ALABAMA
 
 
 
CITY SKY/WX TMP DP RH WIND PRES REMARKS
 
MUSCLE SHOALS PTSUNNY 79 61 53 SW13 29.88F  
 
   
..MIDDLE TENNESSEE
 
 
 
CITY SKY/WX TMP DP RH WIND PRES REMARKS
 
NASHVILLE CLOUDY 75 60 59 SW15G26 29.85F  
CLARKSVILLE RAIN 66 65 96 SW3 29.83F FOG  
DICKSON CLOUDY 64 63 94 W13G20 29.85F FOG  
COLUMBIA MOSUNNY 73 66 78 SW16 29.86F  
LAWRENCEBURG PTSUNNY 73 64 73 S6G15 29.88F  
LEWISBURG PTSUNNY 73 64 73 S14 29.88F  
 
   
..WESTERN KENTUCKY
 
 
 
CITY SKY/WX TMP DP RH WIND PRES REMARKS
 
PADUCAH RAIN 67 64 90 SW6 29.77F FOG  
FORT CAMPBELL HVY RAIN 65 65 100 SW20G26 29.82 VSB 1/2  
 
   
..CENTRAL ARKANSAS
 
 
 
CITY SKY/WX TMP DP RH WIND PRES REMARKS
 
LITTLE ROCK CLOUDY 64 58 80 NW17G31 29.84R  
 
SKY/WX REPORTED AS FAIR MEANS FEW OR NO CLOUDS BELOW  
12 THOUSAND FEET.  
 
 
 
CLICK HERE TO GO TO PREVIOUS BULLETINS.

The Nexlab TN Page
The Nexlab MS Page
The Nexlab AR Page Main Text Page